weather.gov     
National Weather Service

Terminal Aerodrome Forecast
NWS Homepage
This page is being discontinued on March 12, 2014.
The same data is available at this site. Please update your bookmarks.
Thank you, and we apologize for the inconvenience.
Please send an email to SR-SRH.Webmaster@noaa.gov with any concerns.


Current Version
Previous Version:    01  02  03  04  05  06  07  08  09  10  11  12  13  14  15  16  17  18  19  20  21  22  23  24  25  26  27  28  29  30  
   31  
[Printable]
860
FTUS43 KOAX 232320
TAFOFK
TAF
KOFK 232320Z 2400/2424 10005KT P6SM SCT100
     FM240800 14005KT P6SM BKN150
     FM241400 16013KT P6SM SCT150
     FM241700 17016G23KT P6SM SCT250=




860
FTUS43 KOAX 232320
TAFOFK
TAF
KOFK 232320Z 2400/2424 10005KT P6SM SCT100
     FM240800 14005KT P6SM BKN150
     FM241400 16013KT P6SM SCT150
     FM241700 17016G23KT P6SM SCT250=


U.S. Dept. of Commerce
NOAA National Weather Service
1325 East West Highway
Silver Spring, MD 20910
E-mail: w-nws.webmaster@noaa.gov
Page last modified: May 16, 2007
NATIONAL WEATHER SERVICE: for Safety, for Work, for Fun - FOR LIFE